This demonstration page uses our WeatherBlox Daily Observations layout. Learn more.

41.55636, -103.73856

Hourly Observations for August 11, 2016

Temp ( °F °C ) Dew Point ( °F °C ) Humidity (%) Winds ( mph kmh ) Pressure ( in mb ) Visibility ( mi km ) Precip ( " mm )
12:53 am 00:53 Clear 67 19.4 56 13.3 68 68 ESE 7 11 29.76 1008 10 16.0934 0 0.0254
1:53 am 01:53 Clear 63 17.2 55 12.8 76 76 NE 6 9 29.77 1008 10 16.0934 0 0
2:53 am 02:53 Clear 64 17.8 48 8.9 56 56 NW 3 6 29.77 1008 10 16.0934 0 0
3:53 am 03:53 Clear 65 18.3 47 8.3 52 52 WSW 8 13 29.77 1008 10 16.0934 0 0
4:53 am 04:53 Clear 58 14.4 50 10 75 75 NNW 7 11 29.8 1009 10 16.0934 0 0
5:53 am 05:53 Clear 59 15 52 11.1 78 78 WNW 8 13 29.82 1010 10 16.0934 0 0
6:53 am 06:53 Sunny 63 17.2 53 11.7 70 70 WNW 7 11 29.87 1011 10 16.0934 0 0
7:53 am 07:53 Sunny 66 18.9 56 13.3 70 70 NW 9 15 29.88 1012 10 16.0934 0 0
8:53 am 08:53 Sunny 72 22.2 57 13.9 59 59 VRB 7 11 29.9 1012 10 16.0934 0 0
9:53 am 09:53 Sunny 77 25 59 15 54 54 NE 8 13 29.91 1013 10 16.0934 0 0
10:53 am 10:53 Sunny 82 27.8 60 15.6 47 47 VRB 7 11 29.91 1013 10 16.0934 0 0
11:53 am 11:53 Sunny 82 27.8 60 15.6 47 47 VRB 5 7 29.91 1013 10 16.0934 0 0
12:53 pm 12:53 Sunny 85 29.4 60 15.6 43 43 W 5 7 29.9 1013 10 16.0934 0 0
1:53 pm 13:53 Partly Cloudy 84 28.9 59 15 43 43 SSE 5 7 29.9 1012 10 16.0934 0 0
2:53 pm 14:53 Mostly Sunny 89 31.7 54 12.2 30 30 N 7 11 29.87 1012 10 16.0934 0 0
3:53 pm 15:53 Sunny 89 31.7 56 13.3 33 33 VRB 6 9 29.85 1011 10 16.0934 0 0
4:53 pm 16:53 Sunny 86 30 53 11.7 32 32 E 5 7 29.86 1011 10 16.0934 0 0
5:53 pm 17:53 Partly Cloudy 82 27.8 55 12.8 40 40 E 7 11 29.87 1012 10 16.0934 0 0
6:53 pm 18:53 Mostly Cloudy with Thunderstorms 78 25.6 51 10.6 39 39 E 9 15 29.86 1011 10 16.0934 0 0
7:07 pm 19:07 Partly Cloudy 75 24 54 12 47 47 ESE 10 17 29.77 1008 10 16.0934 0 0
7:27 pm 19:27 Mostly Cloudy with Nearby Thunderstorms 76 24.4 54 12.2 47 47 SW 12 19 29.83 1010 10 16.0934 0 0
7:39 pm 19:39 Windy with Storms Likely 63 17.2 55 12.8 76 76 WNW 37 59 29.97 1015 2 3.21868 0 0.0254
7:41 pm 19:41 Cloudy with Thunderstorms 61 16.1 57 13.9 87 87 WNW 33 54 30 1016 1 1.60934 0 0.0254
7:48 pm 19:48 Cloudy with Heavy Thunderstorms 59 15 57 14 94 94 NW 23 37 30 1016 0.5 0.80467 0 0
7:53 pm 19:53 Cloudy with Heavy Thunderstorms 61 16.1 58 14.4 90 90 NNW 17 28 30.05 1018 1 1.60934 0.49 12.446
8:00 pm 20:00 Cloudy with Heavy Thunderstorms 61 16 57 14 88 88 NNE 15 24 30 1016 2 3.21868 0 0
8:12 pm 20:12 Cloudy with Nearby Thunderstorms 63 17 N/A N/A NE 13 20 29.97 1015 5 8.0467 0 0
8:44 pm 20:44 Cloudy with Light Rain 64 18 N/A N/A ENE 14 22 29.97 1015 10 16.0934 0 0
8:53 pm 20:53 Cloudy 64 18 N/A N/A NE 9 15 30 1016 10 16.0934 0.28 7.112
9:53 pm 21:53 Clear 61 16 N/A N/A N 9 15 30.01 1016 10 16.0934 0 0.0254
10:53 pm 22:53 Clear 61 16 N/A N/A N 9 15 30.02 1017 10 16.0934 0 0
11:53 pm 23:53 Clear 59 15 59 15 100 100 SW 7 11 30.03 1017 10 16.0934 0 0

Powered by AerisWeather